Location: Ciserano
(45.5833°N, 9.6000°E)
Time: 18:22:06
(UTC+00:00)

RESURS DK-1 - Visible Passes

Search period start: 16 April 2021 00:00
Search period end: 26 April 2021 00:00
Orbit: 555 x 562 km, 69.9° (Epoch: 15 April)

Date Brightness Start Highest point End Pass type
(mag) Time Alt. Az. Time Alt. Az. Time Alt. Az.
16 Apr 4.1 18:46:09 10° SE 18:48:04 13° ESE 18:49:59 10° ENE visible
16 Apr 2.7 20:21:28 10° SW 20:25:33 63° WNW 20:29:40 10° NNE visible
17 Apr 3.8 18:43:19 10° SE 18:46:02 17° ESE 18:48:46 10° ENE visible
17 Apr 3.3 20:19:41 10° SW 20:23:41 48° WNW 20:27:43 10° NNE visible
18 Apr 6.0 03:04:06 10° NNE 03:04:49 10° NE 03:05:32 10° NE visible
18 Apr 3.5 18:40:48 10° SSE 18:44:02 23° ESE 18:47:17 10° NE visible
18 Apr 3.9 20:18:01 10° SW 20:21:51 37° NW 20:25:43 10° NNE visible
19 Apr 5.8 03:01:12 10° NNE 03:03:08 13° NE 03:05:01 10° ENE visible
19 Apr 3.2 18:38:28 10° S 18:42:02 29° ESE 18:45:39 10° NE visible
19 Apr 4.5 20:16:25 10° WSW 20:20:02 29° NW 20:23:41 10° N visible
20 Apr 5.6 02:58:49 10° N 03:01:24 16° NE 03:03:56 10° E visible
20 Apr 4.9 20:14:54 10° WSW 20:18:14 23° NW 20:21:36 10° N visible
21 Apr 5.4 02:56:36 10° N 02:59:38 19° NE 03:02:40 10° E visible
21 Apr 5.3 20:13:30 10° W 20:16:28 19° NW 20:19:28 10° N visible
22 Apr 5.0 02:54:28 10° N 02:57:52 24° NE 03:01:15 10° ESE visible
22 Apr 5.7 20:12:14 10° W 20:14:44 15° NW 20:17:14 10° N visible
23 Apr 4.6 02:52:23 10° N 02:56:04 30° NE 02:59:45 10° ESE visible
23 Apr 5.9 20:11:11 10° WNW 20:13:00 12° NW 20:14:49 10° NNW visible
24 Apr 4.0 02:50:21 10° NNW 02:54:15 38° NE 02:58:08 10° SE visible
24 Apr 6.2 20:10:51 10° NW 20:11:18 10° NW 20:11:45 10° NNW visible
25 Apr 3.4 02:48:21 10° NNW 02:52:25 49° ENE 02:56:27 10° SE visible
